THORAD AGENA D DEB, 4741

Orbit data source: Space-Track

THORAD AGENA D DEB, 4741 is space debris in LEO originally from a launch on Wed, 08 Apr 1970 UTC launched from the Air Force Western Test Range (AFWTR). Debris objects in space refer to the collection of defunct objects orbiting the Earth. Examples of debris include non-operational satellites, rocket bodies, and fragments generated from explosions, collisions, or faulty payload assembly.

Loading next visibility...
Identifier
4741, 1970-025CQ
Orbit
LEO
Country
Flag of USUS
Related business
Manufacturer
Unknown
Mission
Spacecraft
Bus & Motor
Unknown
Mass
Unknown
Launch date (UTC)
1970-04-08 (56 years ago)
Launch vehicle
Unknown
Launch site
Air Force Western Test Range (AFWTR)
Object type
Payload
Rocket body
Debris
Shape & HBR
Unknown shape, 0.1 m
Radar Cross Section
Medium (>0.1 m² and <1 m²)

Expand to show TLE details & history
Last TLE update: 11 hours ago

TLE from 11 hours ago
0 THORAD AGENA D DEB
1 04741U 70025CQ  26256.13213786 -.00000172  00000-0 -79027-3 0  9992
2 04741 100.2912 329.7377 0786596  87.2071 346.8885 11.94709294459700
Epoch: 2026-09-13T03:10Z
TLE epoch observation values (Epoch: 2026-09-13T03:10:16.711Z)
Latitude
69.28827°
Longitude
-98.49976°
Altitude
1,100.063 km
Speed
7.583 km/s
True Right ascension
20h 04m 48s
True Declination
69° 10' 46"
Sunlit
Object was in daylight at epoch
Visualization orbit readout
Latitude
Unknown
Longitude
Unknown
Altitude
Unknown
Speed
Unknown
Apparent Right ascension
Unknown
Apparent Declination
Unknown
Sunlit
N/A
Visualization observer readout
Local Sidereal Time
06:51:56
Azimuth
Unknown
Elevation
Unknown
Doppler factor
Unknown
Orbital elements
Apogee altitude
2,337.747 km
Perigee altitude
1,066.562 km
Semi-major axis
8,080.291 km
Eccentricity
0.07866
Inclination
100.2912°
RAAN
329.7377°
Arg. of periapsis
87.2071°
True anomaly
344.62885°
Mean anomaly
346.8885°
Eccentric anomaly
345.78152°
Mean motion
2.98815 °/min
Orbital period
120.48 mins
BSTAR
-0.00079027
Loading maneuver chart data...
Computing Atmospheric mass density...

Documentation

Showing up to 5 results
|